• In Hungary
  • List of Countries
  • For 7 days
  • Water Temperature
  • Satellite Maps
  • Weather Map
  • News
  • Weather Widgets
  • user-avatar
    Login

    Hourly Weather Sharagol

    Today, 20 October, Friday

    Time Temperature Precipitation Wind Pressure Humidity
    00:00 -6°C° 0 mm 1 mps 599 mmHg 77%
    01:00 -6°C° 0 mm 1 mps 599 mmHg 76%
    02:00 -6°C° 0 mm 1 mps 599 mmHg 74%
    03:00 -6°C° 0 mm 1 mps 599 mmHg 73%
    04:00 -6°C° 0 mm 1 mps 599 mmHg 72%
    05:00 -6°C° 0 mm 1 mps 599 mmHg 71%
    06:00 -6°C° 0 mm 1 mps 599 mmHg 70%
    07:00 -6°C° 0 mm 1 mps 599 mmHg 69%
    08:00 -3°C° 0 mm 1 mps 599 mmHg 69%
    09:00 -3°C° 0 mm 2 mps 600 mmHg 68%
    10:00 -1°C° 0 mm 2 mps 600 mmHg 68%
    11:00 -1°C° 0 mm 2 mps 600 mmHg 69%
    12:00 +1°C° 0 mm 2 mps 600 mmHg 71%
    13:00 +2°C° 0 mm 2 mps 600 mmHg 72%
    14:00 +1°C° 0.1 mm 2 mps 599 mmHg 77%
    15:00 +1°C° 0.1 mm 2 mps 599 mmHg 81%
    16:00 -1°C° 0.1 mm 2 mps 599 mmHg 85%
    17:00 -1°C° 0.2 mm 2 mps 599 mmHg 87%
    18:00 0°C° 0.2 mm 1 mps 599 mmHg 89%
    19:00 -1°C° 0.2 mm 1 mps 599 mmHg 91%
    20:00 -1°C° 0.2 mm 1 mps 599 mmHg 90%
    21:00 -3°C° 0.2 mm 2 mps 599 mmHg 90%
    22:00 -4°C° 0.2 mm 2 mps 599 mmHg 89%
    23:00 -4°C° 0.1 mm 2 mps 599 mmHg 88%

    Tomorrow, 21 October, Saturday

    Time Temperature Precipitation Wind Pressure Humidity
    00:00 -4°C° 0.1 mm 2 mps 599 mmHg 88%
    01:00 -5°C° 0.1 mm 2 mps 599 mmHg 87%
    02:00 -5°C° 0 mm 2 mps 600 mmHg 86%
    03:00 -6°C° 0 mm 2 mps 600 mmHg 86%
    04:00 -6°C° 0 mm 2 mps 600 mmHg 85%
    05:00 -7°C° 0 mm 2 mps 600 mmHg 84%
    06:00 -7°C° 0 mm 2 mps 600 mmHg 82%
    07:00 -8°C° 0 mm 2 mps 600 mmHg 81%
    08:00 -6°C° 0 mm 2 mps 601 mmHg 77%
    09:00 -5°C° 0 mm 2 mps 602 mmHg 74%
    10:00 -3°C° 0 mm 2 mps 602 mmHg 70%
    11:00 -2°C° 0 mm 2 mps 602 mmHg 66%
    12:00 -2°C° 0 mm 2 mps 602 mmHg 62%
    13:00 -1°C° 0 mm 2 mps 602 mmHg 58%
    14:00 -1°C° 0 mm 2 mps 602 mmHg 60%
    15:00 -2°C° 0 mm 2 mps 601 mmHg 63%
    16:00 -3°C° 0 mm 2 mps 601 mmHg 66%
    17:00 -4°C° 0 mm 2 mps 601 mmHg 67%
    18:00 -5°C° 0 mm 2 mps 601 mmHg 68%
    19:00 -6°C° 0 mm 2 mps 601 mmHg 69%
    20:00 -6°C° 0 mm 2 mps 601 mmHg 68%
    21:00 -6°C° 0 mm 2 mps 601 mmHg 67%
    22:00 -6°C° 0 mm 3 mps 601 mmHg 66%
    23:00 -6°C° 0 mm 3 mps 601 mmHg 66%

    Day after tomorrow, 22 October, Sunday

    Time Temperature Precipitation Wind Pressure Humidity
    00:00 -5°C° 0 mm 3 mps 601 mmHg 66%
    01:00 -5°C° 0 mm 3 mps 601 mmHg 65%
    02:00 -5°C° 0 mm 3 mps 601 mmHg 65%
    03:00 -5°C° 0 mm 3 mps 601 mmHg 64%
    04:00 -4°C° 0 mm 2 mps 600 mmHg 64%
    05:00 -4°C° 0 mm 2 mps 600 mmHg 64%
    06:00 -5°C° 0 mm 2 mps 600 mmHg 63%
    07:00 -5°C° 0 mm 2 mps 600 mmHg 63%
    08:00 -3°C° 0 mm 2 mps 600 mmHg 63%
    09:00 -2°C° 0 mm 2 mps 601 mmHg 63%
    10:00 0°C° 0 mm 3 mps 601 mmHg 64%
    11:00 0°C° 0 mm 3 mps 601 mmHg 64%
    12:00 +2°C° 0 mm 2 mps 600 mmHg 64%
    13:00 +3°C° 0 mm 2 mps 600 mmHg 65%
    14:00 +2°C° 0 mm 2 mps 599 mmHg 65%
    15:00 +1°C° 0 mm 2 mps 599 mmHg 66%
    16:00 -1°C° 0 mm 2 mps 599 mmHg 67%
    17:00 -2°C° 0 mm 2 mps 598 mmHg 67%
    18:00 -3°C° 0 mm 2 mps 598 mmHg 67%
    19:00 -4°C° 0 mm 2 mps 598 mmHg 67%
    20:00 -4°C° 0 mm 2 mps 598 mmHg 66%
    21:00 -4°C° 0 mm 2 mps 598 mmHg 64%
    22:00 -4°C° 0 mm 2 mps 598 mmHg 63%
    23:00 -4°C° 0 mm 2 mps 598 mmHg 61%

    23 October, Monday

    Time Temperature Precipitation Wind Pressure Humidity
    00:00 -4°C° 0 mm 2 mps 598 mmHg 60%
    01:00 -4°C° 0 mm 2 mps 598 mmHg 58%
    02:00 -4°C° 0 mm 2 mps 598 mmHg 57%
    03:00 -4°C° 0 mm 2 mps 598 mmHg 55%
    04:00 -4°C° 0 mm 2 mps 598 mmHg 53%
    05:00 -5°C° 0 mm 2 mps 598 mmHg 53%
    06:00 -5°C° 0 mm 2 mps 598 mmHg 53%
    07:00 -5°C° 0 mm 2 mps 598 mmHg 53%
    08:00 -3°C° 0 mm 2 mps 599 mmHg 54%
    09:00 -2°C° 0 mm 2 mps 599 mmHg 55%
    10:00 +1°C° 0 mm 2 mps 600 mmHg 57%
    11:00 +2°C° 0 mm 2 mps 600 mmHg 59%
    12:00 +3°C° 0 mm 2 mps 600 mmHg 61%
    13:00 +3°C° 0 mm 2 mps 600 mmHg 63%
    14:00 +3°C° 0 mm 1 mps 600 mmHg 62%
    15:00 +3°C° 0 mm 1 mps 600 mmHg 62%
    16:00 +2°C° 0 mm 1 mps 600 mmHg 62%
    17:00 0°C° 0 mm 1 mps 601 mmHg 64%
    18:00 -1°C° 0 mm 1 mps 601 mmHg 66%
    19:00 -2°C° 0 mm 1 mps 601 mmHg 68%
    20:00 -2°C° 0 mm 1 mps 601 mmHg 68%
    21:00 -2°C° 0 mm 1 mps 601 mmHg 68%
    22:00 -3°C° 0 mm 1 mps 602 mmHg 68%
    23:00 -3°C° 0 mm 1 mps 602 mmHg 68%

    24 October, Tuesday

    Time Temperature Precipitation Wind Pressure Humidity
    00:00 -3°C° 0 mm 1 mps 601 mmHg 67%
    01:00 -3°C° 0 mm 1 mps 601 mmHg 67%
    02:00 -3°C° 0 mm 1 mps 601 mmHg 67%
    03:00 -3°C° 0 mm 1 mps 601 mmHg 67%
    04:00 -4°C° 0 mm 1 mps 601 mmHg 67%
    05:00 -4°C° 0 mm 1 mps 601 mmHg 67%
    06:00 -4°C° 0 mm 1 mps 602 mmHg 67%
    07:00 -4°C° 0 mm 1 mps 602 mmHg 67%
    08:00 -3°C° 0 mm 1 mps 602 mmHg 66%
    09:00 -1°C° 0 mm 1 mps 603 mmHg 64%
    10:00 +1°C° 0 mm 1 mps 603 mmHg 63%
    11:00 +1°C° 0 mm 1 mps 603 mmHg 61%
    12:00 +2°C° 0 mm 1 mps 603 mmHg 60%
    13:00 +3°C° 0 mm 1 mps 603 mmHg 58%
    14:00 +2°C° 0 mm 1 mps 602 mmHg 60%
    15:00 +2°C° 0 mm 1 mps 602 mmHg 62%
    16:00 +1°C° 0 mm 1 mps 601 mmHg 63%
    17:00 0°C° 0 mm 1 mps 601 mmHg 64%
    18:00 -3°C° 0 mm 2 mps 601 mmHg 64%
    19:00 -4°C° 0 mm 2 mps 601 mmHg 65%
    20:00 -4°C° 0 mm 2 mps 601 mmHg 64%
    21:00 -5°C° 0 mm 2 mps 600 mmHg 64%
    22:00 -5°C° 0 mm 2 mps 600 mmHg 63%
    23:00 -5°C° 0 mm 2 mps 600 mmHg 63%

    25 October, Wednesday

    Time Temperature Precipitation Wind Pressure Humidity
    00:00 -5°C° 0 mm 2 mps 600 mmHg 62%
    01:00 -5°C° 0 mm 2 mps 600 mmHg 62%
    02:00 -5°C° 0 mm 2 mps 600 mmHg 61%
    03:00 -5°C° 0 mm 2 mps 599 mmHg 59%
    04:00 -5°C° 0 mm 2 mps 599 mmHg 58%
    05:00 -5°C° 0 mm 2 mps 599 mmHg 57%
    06:00 -5°C° 0 mm 2 mps 599 mmHg 56%
    07:00 -5°C° 0 mm 2 mps 599 mmHg 55%
    08:00 -4°C° 0 mm 2 mps 600 mmHg 56%
    09:00 -2°C° 0 mm 2 mps 600 mmHg 56%
    10:00 +1°C° 0 mm 2 mps 601 mmHg 56%
    11:00 +1°C° 0 mm 2 mps 601 mmHg 56%
    12:00 +3°C° 0 mm 1 mps 601 mmHg 56%
    13:00 +4°C° 0 mm 1 mps 601 mmHg 56%
    14:00 +3°C° 0 mm 1 mps 600 mmHg 56%
    15:00 +2°C° 0 mm 1 mps 600 mmHg 56%
    16:00 +1°C° 0 mm 1 mps 599 mmHg 57%
    17:00 0°C° 0 mm 1 mps 599 mmHg 57%
    18:00 -1°C° 0 mm 1 mps 599 mmHg 58%
    19:00 -4°C° 0 mm 2 mps 599 mmHg 58%
    20:00 -4°C° 0 mm 2 mps 599 mmHg 58%
    21:00 -4°C° 0 mm 2 mps 599 mmHg 58%
    22:00 -4°C° 0 mm 2 mps 598 mmHg 57%
    23:00 -4°C° 0 mm 2 mps 598 mmHg 58%
    Show more